星链-1055 (STARLINK-1055 )

导读 | 豆包AI

STARLINK-1055是美国太空探索技术公司(SpaceX)星链星座中的一颗卫星,于2019年11月11日发射入轨,属于星链早期部署的组网卫星,承担着低轨卫星互联网技术验证与初步组网的任务。星链星座旨在为全球提供覆盖偏远地区的高速宽带网络服务,该卫星是星链大规模部署进程中的组成单元。

Basic Information
目录编号:
44760
目录名称:
STARLINK-1055
国际标识:
2019-074AZ
轨道中心:
EARTH
卫星名称:
星链-1055
卫星全名:
星链-1055 (STARLINK-1055 )
卫星状态:
已陨落 最后检测时间 2025-01-12
发射日期:
2019-11-11 UTC
国别 :
美国 (US)
星等 :
--
Orbit Information
数据来源 国际轨道数据
星历时间: 2025-01-13T05:50:22+0800
轨道信息已过期425天
半长轴: 6521.525km
偏心率: 0.000423
轨道倾角: 52.973°
近地点辐角 289.922°
升交点赤经 185.745°
平近点角 188.310°
近地点: 140.631km
远地点: 146.149km
周期: 87.354分钟
每日圈数: 16.484626
Detailed Information
固有亮度:
5
最大亮度:
2.5
卫星平台:
Starlink V1.0
覆盖范围:
全球
运营商:
太空探索技术公司
运营商所在国:
美国
制造商(研发单位):
太空探索技术公司
制造商所在国:
美国
使用方式:
暂无
Satellite Introduction
星链(Starlink)计划是由太空探索技术公司(SpaceX)提出的一个巨型低轨卫星互联网星座项目,计划在2019年至2024年间在太空搭建由约1.2万颗卫星组成的“星链”网络,其中1584颗将部署在地球上空550千米处的近地轨道,并从2020年开始工作。该卫星仍在工作。